Location: Newark
(45.9456°N, 15.4064°E)
Time: 11:04:50
(UTC+00:00)

Vanguard 3 - Pass Details

Date: 24 January 2020
Orbit: 508 x 3263 km, 33.3° (Epoch: 22 February)

Event Time Altitude Azimuth Distance (km) Brightness Sun altitude
Rises 17:07:10 0° 238° (WSW) 7,108 13.5 -13.1°
Reaches altitude 10° 17:12:06 10° 233° (SW) 6,180 12.7 -14.0°
Maximum altitude 17:30:27 48° 168° (SSE) 3,579 10.3 -17.1°
Enters shadow 17:41:42 19° 106° (ESE) 4,327 10.3 -19.0°
Drops below altitude 10° 17:44:24 10° 100° (E) 4,810 - -19.5°
Sets 17:47:41 0° 95° (E) 5,492 - -20.0°
